THOR ABLESTAR DEB, 538

Orbit data source: Space-Track

THOR ABLESTAR DEB, 538 is space debris in LEO originally from a launch on Thu, 29 Jun 1961 UTC launched from the Air Force Eastern Test Range (AFETR). Debris objects in space refer to the collection of defunct objects orbiting the Earth. Examples of debris include non-operational satellites, rocket bodies, and fragments generated from explosions, collisions, or faulty payload assembly.

Loading next visibility...
Identifier
538, 1961-015FX
Orbit
LEO
Country
Flag of USUS
Related business
Manufacturer
Unknown
Mission
Spacecraft
Bus & Motor
Unknown
Mass
Unknown
Launch date (UTC)
1961-06-29 (65 years ago)
Launch vehicle
Unknown
Launch site
Air Force Eastern Test Range (AFETR)
Object type
Payload
Rocket body
Debris
Shape & HBR
Unknown shape, 0.1 m
Radar Cross Section
Small (<0.1 m²)

Expand to show TLE details & history
Last TLE update: 10 hours ago

TLE from 10 hours ago
0 THOR ABLESTAR DEB
1 00538U 61015FX  26037.16447871  .00008753  00000-0  16709-2 0  9993
2 00538  67.8054 307.7979 0006390 341.4243  18.6647 14.64291054344413
Epoch: 2026-02-06T03:56Z
TLE epoch observation values (Epoch: 2026-02-06T03:56:50.960Z)
Latitude
-0.00006°
Longitude
112.27926°
Altitude
677.306 km
Speed
7.521 km/s
True Right ascension
20h 31m 11s
True Declination
0° 00' 00"
Sunlit
Object was in daylight at epoch
Visualization orbit readout
Latitude
Unknown
Longitude
Unknown
Altitude
Unknown
Speed
Unknown
Apparent Right ascension
Unknown
Apparent Declination
Unknown
Sunlit
N/A
Visualization observer readout
Local Sidereal Time
16:05:51
Azimuth
Unknown
Elevation
Unknown
Doppler factor
Unknown
Orbital elements
Apogee altitude
682.081 km
Perigee altitude
673.064 km
Semi-major axis
7,055.71 km
Eccentricity
0.00064
Inclination
67.8054°
RAAN
307.7979°
Arg. of periapsis
341.4243°
True anomaly
18.68815°
Mean anomaly
18.6647°
Eccentric anomaly
18.67642°
Mean motion
3.66212 °/min
Orbital period
98.3 mins
BSTAR
0.0016709
Loading maneuver chart data...
Computing Atmospheric mass density...

Documentation

Showing up to 5 results
|